Lid_Strength_Index
6 6 6 5 5 5 7 9 14 7 5 13 14 16 12 9 10 9 10 11 12 14 13 14 15 15 13 10 11 14 13 16 19 16 12 11 12 14 15 19 19 20 22 18
6 6 6 6 6 6 9 13 12 7 8 15 15 13 12 11 12 11 11 12 11 11 12 14 14 13 11 10 11 13 12 16 21 18 16 13 14 13 14 15 17 19 20 18
6 6 6 6 6 5 10 12 15 11 10 10 13 13 13 13 10 10 10 10 10 12 13 12 14 14 11 10 10 7 9 15 17 19 17 14 15 14 13 15 19 17 17 15
6 6 6 5 5 5 9 12 14 13 16 14 15 14 14 15 14 10 10 11 11 11 13 12 13 12 12 10 8 9 11 16 16 15 14 14 14 14 14 15 14 17 15 15
6 5 5 5 5 5 11 13 14 14 15 14 16 15 16 16 14 13 13 13 12 11 12 12 13 11 12 12 11 11 12 15 15 16 14 14 15 14 13 14 13 13 13 14
5 5 4 5 4 5 9 10 10 11 15 17 18 16 15 15 13 13 12 12 12 13 12 9 9 8 8 10 10 12 13 15 16 17 15 16 18 15 13 13 13 14 16 14
4 4 4 4 4 5 7 8 9 12 16 15 14 12 12 13 13 14 12 11 12 11 6 7 8 8 9 10 10 10 13 14 15 17 17 20 16 13 11 12 12 12 13 12
4 4 4 4 4 4 7 6 5 7 12 10 10 10 10 10 10 10 10 9 7 6 7 11 13 13 12 12 11 11 11 12 15 16 18 15 14 13 13 13 14 12 13 12
4 4 4 4 3 1 3 4 2 4 8 10 7 9 9 11 11 11 10 6 6 6 9 12 15 17 15 16 15 12 11 10 13 16 18 19 16 13 11 12 16 13 13 13
4 3 2 1 -0 -1 1 2 1 3 7 7 7 10 9 7 9 10 10 8 10 8 12 14 15 15 12 17 16 16 15 15 15 15 16 15 12 12 12 17 15 12 12 13
3 1 -0 -2 -2 -2 -1 1 0 3 6 6 6 5 8 8 8 11 10 11 10 11 13 13 13 14 13 15 13 15 16 16 15 15 17 18 11 12 14 12 12 11 11 12
0 -1 -2 -3 -2 -2 -2 2 0 0 4 6 4 4 3 4 5 8 8 10 10 10 12 11 11 13 14 13 15 13 14 12 14 13 14 11 11 11 10 10 11 11 11 11
-1 -2 -2 -2 -2 -2 -2 1 1 1 4 5 6 5 3 2 3 3 10 9 8 8 8 11 11 13 12 15 14 13 11 10 12 11 11 11 11 10 10 9 10 10 10 10
-2 -3 -2 -2 -2 -2 -2 2 1 2 4 8 8 3 5 3 3 3 4 6 7 8 9 12 12 12 9 12 11 12 11 10 11 11 10 9 9 9 9 9 8 9 9 9
-2 -2 -2 -2 -2 -2 -0 1 1 1 4 9 8 5 4 4 4 5 4 6 8 10 11 11 11 9 10 11 11 14 11 11 12 13 9 8 9 8 8 8 8 8 9 9
-2 -2 -2 -2 -2 -1 1 5 2 -0 1 6 10 7 7 7 5 5 6 7 8 9 10 10 10 10 10 13 15 13 11 10 9 9 8 8 9 9 8 9 9 8 8 8
-3 -2 -2 -2 -2 1 3 6 3 -1 1 6 10 10 7 8 6 6 7 7 8 9 9 10 10 13 12 16 19 15 12 11 10 9 9 11 10 10 9 8 9 8 8 9
-2 -2 -2 -2 -1 0 4 2 -1 0 4 5 12 12 10 7 10 11 7 9 8 8 9 10 14 14 14 19 16 15 13 10 11 11 11 11 11 11 11 10 9 10 10 9
-2 -2 -2 1 2 5 5 -1 -1 2 5 10 11 12 14 7 10 9 9 8 12 8 15 14 15 17 20 17 16 15 14 12 12 11 10 10 11 11 11 11 10 11 11 11
-2 2 4 7 5 -1 1 5 8 9 5 9 12 11 14 10 11 12 12 11 11 13 13 11 16 18 15 15 14 14 14 12 12 14 14 13 13 13 13 12 12 11 11 11
2 5 7 4 0 5 10 14 14 13 16 14 13 13 13 10 12 12 9 12 11 15 14 16 18 19 17 14 14 13 13 13 13 12 13 13 13 14 14 14 13 14 14 14
1 2 1 4 9 11 15 19 15 16 16 13 14 12 11 11 9 10 9 11 12 17 13 17 20 17 14 14 14 13 13 13 13 12 13 13 13 13 14 14 14 14 14 14
5 8 11 11 13 17 20 19 18 16 14 13 12 13 12 11 9 10 11 14 15 12 17 19 17 14 13 13 12 12 12 12 12 12 12 12 12 12 13 14 14 14 14 14
11 16 17 16 18 13 11 11 12 11 9 10 11 12 14 11 11 12 14 17 15 18 20 19 16 14 13 12 11 12 12 12 12 12 12 12 13 13 12 12 12 13 13 13
15 15 16 18 10 10 11 12 12 9 8 10 12 13 12 13 15 13 16 19 19 18 19 15 13 12 13 12 11 12 12 12 12 12 12 12 12 13 13 13 13 13 13 13
15 14 16 12 16 16 15 15 12 10 10 10 11 18 18 16 15 17 19 20 19 17 14 12 12 12 12 12 11 11 11 12 13 12 12 12 12 13 13 13 13 13 13 13
18 15 9 11 13 13 13 11 11 9 12 14 18 19 17 16 17 17 14 16 14 12 11 11 11 12 12 12 11 11 11 12 12 12 12 12 12 13 13 14 13 13 12 12